Location: Chagrin Falls Park
(41.4139°N, 81.3865°W)
Time: 09:03:53
(UTC+00:00)

STARLINK-2727 - Pass Details

Date: 09 December 2021
Orbit: 546 x 548 km, 53.1° (Epoch: 22 January)

Event Time Altitude Azimuth Distance (km) Brightness Sun altitude
Rises 23:14:03 0° 307° (NW) 2,721 7.7 -14.2°
Reaches altitude 10° 23:16:50 10° 326° (NNW) 1,826 6.5 -14.7°
Maximum altitude 23:19:49 19° 12° (NNE) 1,356 5.3 -15.2°
Enters shadow 23:20:36 18° 27° (NNE) 1,394 5.3 -15.3°
